Regional Weather Roundup
Issued by NWS Sterling, VA

Home | Current Version | Previous Version | Text Only | Print | Product List | Glossary Off
Versions: 1 2 3 4 5 6 7 8 9 10 11 12 13 14 15 16 17 18 19 20 21 22 23 24 25 26 27 28 29 30 31 32 33 34 35 36 37 38 39 40 41 42 43 44 45 46 47 48 49 50

000
ASUS41 KLWX 200110
RWRLWX

REGIONAL WEATHER ROUNDUP
NATIONAL WEATHER SERVICE BALTIMORE MD/WASHINGTON DC
800 PM EST MON FEB 19 2018

Note: "FAIR" indicates few or no clouds below 12,000 feet
with no significant weather and/or obstructions to visibility.
 TC=TEMPERATURE CELSIUS

 * =Non NWS site. Station does not report precipitation (e.g. rain,
    snow, etc.), thunder, or fog.

DCZ001-MDZ009-015-VAZ040>042-051-053>054-200200-
WASHINGTON METRO

CITY           SKY/WX    TMP DP  RH WIND       PRES   REMARKS
WASHINGTON NAT CLOUDY    48  47  96 S7        30.36S
DULLES         CLOUDY    46  45  96 S6        30.34S
ANDREWS AFB    CLOUDY    48  46  93 S8        30.34S
FT BELVOIR     CLOUDY    47  46  94 SE3       30.36R
QUANTICO       CLOUDY    46  46 100 S7        30.37S FOG
COLLEGE PARK*  CLOUDY    47  45  93 S3        30.35S
LEESBURG*      CLOUDY    45  45 100 S8        30.34R
MANASSAS*      CLOUDY    47  45  93 S7        30.35S
GAITHERSBURG*  CLOUDY    45  44  97 S5        30.34S FOG

$$

MDZ006>007-011-014-200200-
BALTIMORE METRO

CITY           SKY/WX    TMP DP  RH WIND       PRES   REMARKS
BWI AIRPORT    FOG       44  44 100 CALM      30.34R VSB 1/4
MD SCIENCE CTR   N/A     42  42 100 MISG      30.35S
MARTIN STATE   FOG       43  43 100 CALM      30.37R VSB 1/2
ANNAPOLIS      FOG       44  44 100 SE3       30.35S VSB 1/4
FORT MEADE*    CLOUDY    45  43  93 CALM      30.37S

$$

MDZ012-015-019>023-200200-
MARYLAND EASTERN SHORE

CITY           SKY/WX    TMP DP  RH WIND       PRES   REMARKS
OCEAN CITY     CLOUDY    52  51  97 SW8       30.40S
SALISBURY      CLOUDY    56  55  97 S8        30.38S
BAY BRIDGE AP* LGT RAIN  48  46  93 S6        30.36R VSB 1/2
EASTON*        CLOUDY    54  52  94 SW9       30.39F FOG

$$

MDZ017>025-200200-
SOUTHERN MARYLAND

CITY           SKY/WX    TMP DP  RH WIND       PRES   REMARKS
PATUXENT RIVER CLOUDY    47  47 100 SE5       30.36F
ST INIGOES     CLOUDY    52  31  44 S6        30.37S
LEONARDTOWN*   CLOUDY    50  50 100 SW6       30.38S

$$

MDZ003>005-200200-
NORTH CENTRAL MARYLAND

CITY           SKY/WX    TMP DP  RH WIND       PRES   REMARKS
FREDERICK*     NOT AVBL
HAGERSTOWN APT FAIR      48  45  89 CALM      30.29S
WESTMINSTER*   FOG       45  45 100 S6        30.31F VSB 3/4

$$

MDZ501>502-200200-
WESTERN MARYLAND

CITY           SKY/WX    TMP DP  RH WIND       PRES   REMARKS
OAKLAND*       FAIR      55  50  82 S8        30.25S
CUMBERLAND*    FAIR      50  43  76 N3        30.30S

$$

VAZ025>031-200200-
SHENANDOAH VALLEY

CITY           SKY/WX    TMP DP  RH WIND       PRES   REMARKS
WINCHESTER*    FAIR      50  45  81 CALM      30.29S
FRONT ROYAL*   FAIR      57  52  82 CALM      30.27S
LURAY*         FAIR      57  52  82 SW7       30.29R
NEW MARKET*    FAIR      55  49  83 SW7       30.29R
STAUNTON*      FAIR      49  46  88 CALM      30.34R
WAYNESBORO*    FAIR      48  47  96 CALM      30.32S

$$

WVZ021-048>050-054>055-200200-
EASTERN WEST VIRGINIA PANHANDLE

CITY           SKY/WX    TMP DP  RH WIND       PRES   REMARKS
MARTINSBURG    FAIR      48  45  89 E3        30.28S
PETERSBURG*    FAIR      60  49  68 S10G18    30.25S

$$

VAZ036>039-050-200200-
CENTRAL FOOTHILLS

CITY           SKY/WX    TMP DP  RH WIND       PRES   REMARKS
CHARLOTTESVILL CLOUDY    51  47  86 S9        30.34S
CULPEPER*      CLOUDY    49  45  87 S5        30.36S
ORANGE*        CLOUDY    46  45  93 CALM      30.35S
GORDONSVILLE*  CLOUDY    49  49 100 S9        30.35S
WARRENTON*     CLOUDY    49  44  83 S6        30.34S

$$

VAZ055>057-200200-
NORTH AND CENTRAL PIEDMONT

CITY           SKY/WX    TMP DP  RH WIND       PRES   REMARKS
FREDERICKSBRG* CLOUDY    49  49 100 S6        30.36S
STAFFORD*      CLOUDY    49  49 100 S6        30.40S

$$

NCZ024-NYZ072-PAZ021-071-VAZ022-071-200200-
OTHER REGIONAL OBSERVATIONS

CITY           SKY/WX    TMP DP  RH WIND       PRES   REMARKS
NEW YORK CITY  LGT RAIN  48  46  93 CALM      30.37R FOG
PHILADELPHIA   CLOUDY    48  45  89 CALM      30.35F
PITTSBURGH     MOCLDY    63  54  72 S7        30.12S
ROANOKE        CLOUDY    49  46  90 SE6       30.38R
RICHMOND       CLOUDY    50  49  96 S5        30.38F
RALEIGH        DRZL/FOG  49  49 100 CALM      30.40F VSB 1

$$

ANZ530>537-200200-
MARINE OBSERVATIONS

STATION/POSITION TIME  TEMP    WIND        PRES
                       AIR SEA DIR/SP/G
                 (UTC) (F)     (DEG/KT/KT) (MB)
THOMAS PT LIGHT  0000   40 38  200/  5/  5   N/A
BALT KEY BRIDGE  0048   41      90/  2/  2 1028.0R
COVE POINT       0048   46     190/  7/  8 1028.7F
LEWISETTA        0048   53 44  230/ 10/ 12 1028.4S
SOLOMONS ISLAND  0048   48 40  140/  3/  3 1027.9S

$$




USA.gov is the U.S. government's official web portal to all federal, state and local government web resources and services.